This is the latest recevied weather packets stored in our database for station/object AD8BV. If no packets are shown the sender has not sent any weather packets the latest 10 day(s).
| Time | Temp. | Humidity | Pressure | Rain* | Wind** | Luminosity | Snow |
|---|---|---|---|---|---|---|---|
| 1777684066 | 3.89° C | 79% | 1017.6 hPa | 0 mm | - | 0 W/m² | - |
| 1777683762 | 4.44° C | 78% | 1017.6 hPa | 0 mm | - | 0 W/m² | - |
| 1777683459 | 4.44° C | 78% | 1017.5 hPa | 0 mm | - | 0 W/m² | - |
| 1777683157 | 4.44° C | 76% | 1017.5 hPa | 0 mm | - | 0 W/m² | - |
| 1777682854 | 5° C | 75% | 1017.4 hPa | 0 mm | - | 0 W/m² | - |
| 1777682550 | 5° C | 76% | 1017.3 hPa | 0 mm | - | 0 W/m² | - |
| 1777682248 | 5° C | 75% | 1017.6 hPa | 0 mm | - | 0 W/m² | - |
| 1777681945 | 5.56° C | 74% | 1017.3 hPa | 0 mm | - | 2 W/m² | - |
| 1777681641 | 5.56° C | 73% | 1017.2 hPa | 0 mm | - | 3 W/m² | - |
| 1777681339 | 5.56° C | 71% | 1017.5 hPa | 0 mm | - | 6 W/m² | - |
| 1777681036 | 5.56° C | 71% | 1017.4 hPa | 0 mm | - | 8 W/m² | - |
| 1777680734 | 6.11° C | 72% | 1017.3 hPa | 0 mm | - | 11 W/m² | - |
| 1777680431 | 6.11° C | 71% | 1017.4 hPa | 0 mm | - | 13 W/m² | - |
| 1777680129 | 6.11° C | 70% | 1017 hPa | 0 mm | - | 16 W/m² | - |
| 1777679824 | 6.11° C | 70% | 1017.2 hPa | 0 mm | - | 22 W/m² | - |
| 1777679520 | 6.11° C | 71% | 1017.1 hPa | 0 mm | - | 22 W/m² | - |
| 1777679216 | 6.11° C | 70% | 1017.2 hPa | 0 mm | - | 23 W/m² | - |
| 1777678914 | 6.11° C | 70% | 1017.1 hPa | 0 mm | - | 29 W/m² | - |
| 1777678612 | 6.67° C | 71% | 1017.2 hPa | 0 mm | - | 32 W/m² | - |
| 1777678308 | 6.67° C | 70% | 1017.2 hPa | 0 mm | - | 42 W/m² | - |
| 1777678004 | 6.67° C | 70% | 1017 hPa | 0 mm | - | 45 W/m² | - |
| 1777677702 | 6.67° C | 69% | 1016.9 hPa | 0 mm | - | 32 W/m² | - |
| 1777677399 | 6.67° C | 69% | 1016.8 hPa | 0 mm | - | 35 W/m² | - |
| 1777677097 | 6.67° C | 68% | 1016.9 hPa | 0 mm | - | 34 W/m² | - |
| 1777676796 | 6.67° C | 69% | 1016.8 hPa | 0 mm | - | 26 W/m² | - |
* Rain latest hour (hover to see other rain measurements)
** Current wind speed in m/s (hover to see current wind gust speed)